Year,Month,Day,Hour,Minute,Value (Times are PST for temperature in C)
2016,08,18,00,00,11.20
2016,08,18,00,01,11.20
2016,08,18,00,02,11.20
2016,08,18,00,03,11.20
2016,08,18,00,04,11.20
2016,08,18,00,05,11.20
2016,08,18,00,06,11.10
2016,08,18,00,07,11.10
2016,08,18,00,08,11.10
2016,08,18,00,09,11.10
2016,08,18,00,10,11.10
2016,08,18,00,11,11.10
2016,08,18,00,12,11.10
2016,08,18,00,17,11.20
2016,08,18,00,18,11.20
2016,08,18,00,19,11.20
2016,08,18,00,20,11.20
2016,08,18,00,21,11.20
2016,08,18,00,22,11.20
2016,08,18,00,23,11.20
2016,08,18,00,24,11.20
2016,08,18,00,25,11.20
2016,08,18,00,26,11.20
2016,08,18,00,27,11.20
2016,08,18,00,28,11.20
2016,08,18,00,29,11.20
2016,08,18,00,30,11.20
2016,08,18,00,31,11.20
2016,08,18,00,32,11.20
2016,08,18,00,33,11.20
2016,08,18,00,34,11.20
2016,08,18,00,35,11.20
2016,08,18,00,36,11.20
2016,08,18,00,37,11.20
2016,08,18,00,38,11.20
2016,08,18,00,39,11.20
2016,08,18,00,40,11.10
2016,08,18,00,41,11.10
2016,08,18,00,42,11.10
2016,08,18,00,43,11.10
2016,08,18,00,44,11.10
2016,08,18,00,45,11.00
2016,08,18,00,46,11.00
2016,08,18,00,47,11.00
2016,08,18,00,48,10.90
2016,08,18,00,49,10.90
2016,08,18,00,50,10.90
2016,08,18,00,51,10.90
2016,08,18,00,52,10.90
2016,08,18,00,53,10.90
2016,08,18,00,54,10.80
2016,08,18,00,55,10.80
2016,08,18,00,56,10.80
2016,08,18,00,57,10.80
2016,08,18,00,58,10.80
2016,08,18,00,59,10.80
2016,08,18,01,00,10.80
2016,08,18,01,01,10.80
2016,08,18,01,02,10.80
2016,08,18,01,03,10.80
2016,08,18,01,04,10.70
2016,08,18,01,05,10.70
2016,08,18,01,06,10.70
2016,08,18,01,07,10.70
2016,08,18,01,08,10.70
2016,08,18,01,09,10.70
2016,08,18,01,10,10.70
2016,08,18,01,11,10.70
2016,08,18,01,12,10.70
2016,08,18,01,13,10.70
2016,08,18,01,14,10.70
2016,08,18,01,15,10.60
2016,08,18,01,16,10.60
2016,08,18,01,17,10.60
2016,08,18,01,18,10.60
2016,08,18,01,19,10.60
2016,08,18,01,20,10.60
2016,08,18,01,21,10.60
2016,08,18,01,22,10.60
2016,08,18,01,23,10.60
2016,08,18,01,24,10.60
2016,08,18,01,25,10.60
2016,08,18,01,26,10.60
2016,08,18,01,27,10.60
2016,08,18,01,28,10.60
2016,08,18,01,29,10.60
2016,08,18,01,30,10.60
2016,08,18,01,31,10.60
2016,08,18,01,32,10.60
2016,08,18,01,33,10.60
2016,08,18,01,34,10.50
2016,08,18,01,35,10.60
2016,08,18,01,36,10.60
2016,08,18,01,37,10.60
2016,08,18,01,38,10.60
2016,08,18,01,39,10.60
2016,08,18,01,40,10.60
2016,08,18,01,41,10.60
2016,08,18,01,42,10.60
2016,08,18,01,43,10.60
2016,08,18,01,44,10.60
2016,08,18,01,45,10.60
2016,08,18,01,46,10.50
2016,08,18,01,47,10.50
2016,08,18,01,48,10.50
2016,08,18,01,49,10.50
2016,08,18,01,50,10.50
2016,08,18,01,51,10.50
2016,08,18,01,52,10.50
2016,08,18,01,53,10.50
2016,08,18,01,54,10.40
2016,08,18,01,55,10.40
2016,08,18,01,56,10.50
2016,08,18,01,57,10.40
2016,08,18,01,58,10.50
2016,08,18,01,59,10.50
2016,08,18,02,00,10.50
2016,08,18,02,01,10.50
2016,08,18,02,02,10.50
2016,08,18,02,03,10.50
2016,08,18,02,04,10.50
2016,08,18,02,05,10.50
2016,08,18,02,06,10.50
2016,08,18,02,07,10.50
2016,08,18,02,08,10.50
2016,08,18,02,09,10.60
2016,08,18,02,10,10.60
2016,08,18,02,11,10.60
2016,08,18,02,12,10.60
2016,08,18,02,13,10.60
2016,08,18,02,14,10.60
2016,08,18,02,15,10.60
2016,08,18,02,16,10.70
2016,08,18,02,17,10.70
2016,08,18,02,18,10.80
2016,08,18,02,19,10.90
2016,08,18,02,20,11.10
2016,08,18,02,21,11.20
2016,08,18,02,22,11.30
2016,08,18,02,23,11.40
2016,08,18,02,24,11.30
2016,08,18,02,25,11.20
2016,08,18,02,26,11.20
2016,08,18,02,27,11.20
2016,08,18,02,28,11.10
2016,08,18,02,29,11.10
2016,08,18,02,30,11.10
2016,08,18,02,31,11.20
2016,08,18,02,32,11.20
2016,08,18,02,33,11.10
2016,08,18,02,34,11.10
2016,08,18,02,35,11.20
2016,08,18,02,36,11.20
2016,08,18,02,37,11.20
2016,08,18,02,38,11.20
2016,08,18,02,39,11.20
2016,08,18,02,40,11.40
2016,08,18,02,41,11.50
2016,08,18,02,42,11.50
2016,08,18,02,43,11.40
2016,08,18,02,44,11.30
2016,08,18,02,45,11.30
2016,08,18,02,46,11.20
2016,08,18,02,47,11.20
2016,08,18,02,48,11.20
2016,08,18,02,49,11.20
2016,08,18,02,50,11.30
2016,08,18,02,51,11.30
2016,08,18,02,52,11.50
2016,08,18,02,53,11.60
2016,08,18,02,54,11.70
2016,08,18,02,55,11.90
2016,08,18,02,56,12.00
2016,08,18,02,57,12.10
2016,08,18,02,58,12.10
2016,08,18,02,59,12.20
2016,08,18,03,00,12.20
2016,08,18,03,01,12.20
2016,08,18,03,02,12.20
2016,08,18,03,03,12.20
2016,08,18,03,04,12.20
2016,08,18,03,05,12.10
2016,08,18,03,06,12.10
2016,08,18,03,07,12.10
2016,08,18,03,08,12.10
2016,08,18,03,09,12.10
2016,08,18,03,10,12.10
2016,08,18,03,11,12.20
2016,08,18,03,12,12.10
2016,08,18,03,13,12.20
2016,08,18,03,14,12.10
2016,08,18,03,15,12.00
2016,08,18,03,16,12.00
2016,08,18,03,17,11.90
2016,08,18,03,18,12.10
2016,08,18,03,19,12.10
2016,08,18,03,20,12.20
2016,08,18,03,21,12.30
2016,08,18,03,22,12.30
2016,08,18,03,23,12.30
2016,08,18,03,24,12.40
2016,08,18,03,25,12.40
2016,08,18,03,26,12.40
2016,08,18,03,27,12.40
2016,08,18,03,28,12.30
2016,08,18,03,29,12.30
2016,08,18,03,30,12.20
2016,08,18,03,31,12.10
2016,08,18,03,32,12.10
2016,08,18,03,33,12.00
2016,08,18,03,34,11.90
2016,08,18,03,35,11.90
2016,08,18,03,36,11.80
2016,08,18,03,37,11.70
2016,08,18,03,38,11.70
2016,08,18,03,39,11.60
2016,08,18,03,40,11.60
2016,08,18,03,41,11.70
2016,08,18,03,42,11.70
2016,08,18,03,43,11.60
2016,08,18,03,44,11.60
2016,08,18,03,45,11.50
2016,08,18,03,46,11.50
2016,08,18,03,47,11.40
2016,08,18,03,48,11.40
2016,08,18,03,49,11.40
2016,08,18,03,50,11.40
2016,08,18,03,51,11.50
2016,08,18,03,52,11.60
2016,08,18,03,53,11.60
2016,08,18,03,54,11.60
2016,08,18,03,55,11.60
2016,08,18,03,56,11.50
2016,08,18,03,57,11.50
2016,08,18,03,58,11.50
2016,08,18,03,59,11.40
2016,08,18,04,00,11.40
2016,08,18,04,01,11.50
2016,08,18,04,02,11.50
2016,08,18,04,03,11.50
2016,08,18,04,04,11.50
2016,08,18,04,05,11.60
2016,08,18,04,06,11.60
2016,08,18,04,07,11.60
2016,08,18,04,08,11.60
2016,08,18,04,09,11.60
2016,08,18,04,10,11.50
2016,08,18,04,11,11.50
2016,08,18,04,12,11.40
2016,08,18,04,13,11.40
2016,08,18,04,14,11.30
2016,08,18,04,15,11.30
2016,08,18,04,16,11.30
2016,08,18,04,17,11.20
2016,08,18,04,18,11.30
2016,08,18,04,19,11.30
2016,08,18,04,20,11.30
2016,08,18,04,21,11.40
2016,08,18,04,22,11.50
2016,08,18,04,23,11.50
2016,08,18,04,24,11.50
2016,08,18,04,25,11.70
2016,08,18,04,26,11.80
2016,08,18,04,27,11.90
2016,08,18,04,28,12.00
2016,08,18,04,29,12.00
2016,08,18,04,30,12.00
2016,08,18,04,31,12.10
2016,08,18,04,32,12.10
2016,08,18,04,33,12.20
2016,08,18,04,34,12.20
2016,08,18,04,35,12.30
2016,08,18,04,36,12.30
2016,08,18,04,37,12.40
2016,08,18,04,38,12.40
2016,08,18,04,39,12.30
2016,08,18,04,40,12.20
2016,08,18,04,41,12.20
2016,08,18,04,42,12.10
2016,08,18,04,43,12.10
2016,08,18,04,44,12.10
2016,08,18,04,45,12.20
2016,08,18,04,46,12.30
2016,08,18,04,47,12.40
2016,08,18,04,48,12.50
2016,08,18,04,49,12.50
2016,08,18,04,50,12.60
2016,08,18,04,51,12.60
2016,08,18,04,52,12.60
2016,08,18,04,53,12.60
2016,08,18,04,54,12.50
2016,08,18,04,55,12.40
2016,08,18,04,56,12.30
2016,08,18,04,57,12.30
2016,08,18,04,58,12.30
2016,08,18,04,59,12.30
2016,08,18,05,00,12.30
2016,08,18,05,01,12.30
2016,08,18,05,02,12.20
2016,08,18,05,03,12.20
2016,08,18,05,04,12.20
2016,08,18,05,05,12.20
2016,08,18,05,06,12.10
2016,08,18,05,07,12.10
2016,08,18,05,08,12.00
2016,08,18,05,09,11.90
2016,08,18,05,10,11.90
2016,08,18,05,11,11.90
2016,08,18,05,12,11.80
2016,08,18,05,13,11.70
2016,08,18,05,14,11.70
2016,08,18,05,15,11.70
2016,08,18,05,16,11.60
2016,08,18,05,17,11.60
2016,08,18,05,18,11.50
2016,08,18,05,19,11.50
2016,08,18,05,20,11.50
2016,08,18,05,21,11.40
2016,08,18,05,22,11.40
2016,08,18,05,23,11.40
2016,08,18,05,24,11.40
2016,08,18,05,25,11.40
2016,08,18,05,26,11.40
2016,08,18,05,27,11.30
2016,08,18,05,28,11.40
2016,08,18,05,29,11.40
2016,08,18,05,30,11.30
2016,08,18,05,31,11.30
2016,08,18,05,32,11.40
2016,08,18,05,33,11.50
2016,08,18,05,34,11.60
2016,08,18,05,35,11.70
2016,08,18,05,36,11.70
2016,08,18,05,37,11.70
2016,08,18,05,38,11.60
2016,08,18,05,39,11.70
2016,08,18,05,40,11.80
2016,08,18,05,41,11.80
2016,08,18,05,42,11.80
2016,08,18,05,43,11.70
2016,08,18,05,44,11.70
2016,08,18,05,45,11.60
2016,08,18,05,46,11.60
2016,08,18,05,47,11.50
2016,08,18,05,48,11.50
2016,08,18,05,49,11.50
2016,08,18,05,50,11.40
2016,08,18,05,51,11.40
2016,08,18,05,52,11.30
2016,08,18,05,53,11.30
2016,08,18,05,54,11.30
2016,08,18,05,55,11.30
2016,08,18,05,56,11.30
2016,08,18,05,57,11.30
2016,08,18,05,58,11.30
2016,08,18,05,59,11.30
2016,08,18,06,00,11.40
2016,08,18,06,01,11.50
2016,08,18,06,02,11.70
2016,08,18,06,03,11.80
2016,08,18,06,04,11.90
2016,08,18,06,05,11.90
2016,08,18,06,06,12.00
2016,08,18,06,07,11.90
2016,08,18,06,08,11.90
2016,08,18,06,09,11.90
2016,08,18,06,10,11.80
2016,08,18,06,11,11.80
2016,08,18,06,12,11.70
2016,08,18,06,13,11.70
2016,08,18,06,14,11.70
2016,08,18,06,15,11.70
2016,08,18,06,16,11.70
2016,08,18,06,17,11.70
2016,08,18,06,18,11.70
2016,08,18,06,19,11.60
2016,08,18,06,20,11.60
2016,08,18,06,21,11.60
2016,08,18,06,22,11.60
2016,08,18,06,23,11.60
2016,08,18,06,24,11.60
2016,08,18,06,25,11.60
2016,08,18,06,26,11.80
2016,08,18,06,27,11.90
2016,08,18,06,28,12.00
2016,08,18,06,29,12.00
2016,08,18,06,30,11.90
2016,08,18,06,31,11.80
2016,08,18,06,32,11.70
2016,08,18,06,33,11.70
2016,08,18,06,34,11.60
2016,08,18,06,35,11.60
2016,08,18,06,36,11.50
2016,08,18,06,37,11.40
2016,08,18,06,38,11.40
2016,08,18,06,39,11.30
2016,08,18,06,40,11.30
2016,08,18,06,41,11.30
2016,08,18,06,42,11.20
2016,08,18,06,43,11.20
2016,08,18,06,44,11.20
2016,08,18,06,45,11.20
2016,08,18,06,46,11.20
2016,08,18,06,47,11.20
2016,08,18,06,48,11.20
2016,08,18,06,49,11.20
2016,08,18,06,50,11.20
2016,08,18,06,51,11.20
2016,08,18,06,52,11.20
2016,08,18,06,53,11.20
2016,08,18,06,54,11.30
2016,08,18,06,55,11.40
2016,08,18,06,56,11.50
2016,08,18,06,57,11.50
2016,08,18,06,58,11.60
2016,08,18,06,59,11.60
2016,08,18,07,00,11.50
2016,08,18,07,01,11.50
2016,08,18,07,02,11.50
2016,08,18,07,03,11.50
2016,08,18,07,04,11.50
2016,08,18,07,05,11.60
2016,08,18,07,06,11.60
2016,08,18,07,07,11.50
2016,08,18,07,08,11.50
2016,08,18,07,09,11.60
2016,08,18,07,10,11.60
2016,08,18,07,11,11.50
2016,08,18,07,12,11.50
2016,08,18,07,13,11.50
2016,08,18,07,14,11.50
2016,08,18,07,15,11.50
2016,08,18,07,16,11.50
2016,08,18,07,17,11.50
2016,08,18,07,18,11.50
2016,08,18,07,19,11.50
2016,08,18,07,20,11.50
2016,08,18,07,21,11.50
2016,08,18,07,22,11.50
2016,08,18,07,23,11.50
2016,08,18,07,24,11.60
2016,08,18,07,25,11.60
2016,08,18,07,26,11.60
2016,08,18,07,27,11.60
2016,08,18,07,28,11.60
2016,08,18,07,29,11.60
2016,08,18,07,30,11.70
2016,08,18,07,31,11.70
2016,08,18,07,32,11.90
2016,08,18,07,33,12.00
2016,08,18,07,34,12.10
2016,08,18,07,35,12.20
2016,08,18,07,36,12.30
2016,08,18,07,37,12.40
2016,08,18,07,38,12.50
2016,08,18,07,39,12.50
2016,08,18,07,40,12.60
2016,08,18,07,41,12.60
2016,08,18,07,42,12.60
2016,08,18,07,43,12.60
2016,08,18,07,44,12.70
2016,08,18,07,45,12.80
2016,08,18,07,46,12.80
2016,08,18,07,47,12.80
2016,08,18,07,48,12.90
2016,08,18,07,49,13.00
2016,08,18,07,50,13.00
2016,08,18,07,51,13.10
2016,08,18,07,52,13.10
2016,08,18,07,53,13.20
2016,08,18,07,54,13.30
2016,08,18,07,55,13.30
2016,08,18,07,56,13.30
2016,08,18,07,57,13.40
2016,08,18,07,58,13.40
2016,08,18,07,59,13.50
2016,08,18,08,00,13.60
2016,08,18,08,01,13.60
2016,08,18,08,02,13.70
2016,08,18,08,03,13.80
2016,08,18,08,04,13.90
2016,08,18,08,05,13.90
2016,08,18,08,06,14.00
2016,08,18,08,07,14.10
2016,08,18,08,08,14.10
2016,08,18,08,09,14.10
2016,08,18,08,10,14.20
2016,08,18,08,11,14.20
2016,08,18,08,12,14.30
2016,08,18,08,13,14.30
2016,08,18,08,14,14.40
2016,08,18,08,15,14.40
2016,08,18,08,16,14.50
2016,08,18,08,17,14.60
2016,08,18,08,18,14.60
2016,08,18,08,19,14.70
2016,08,18,08,20,14.70
2016,08,18,08,21,14.80
2016,08,18,08,22,14.80
2016,08,18,08,23,14.90
2016,08,18,08,24,14.90
2016,08,18,08,25,15.00
2016,08,18,08,26,15.00
2016,08,18,08,27,15.10
2016,08,18,08,28,15.10
2016,08,18,08,29,15.20
2016,08,18,08,30,15.20
2016,08,18,08,31,15.30
2016,08,18,08,32,15.40
2016,08,18,08,33,15.40
2016,08,18,08,34,15.50
2016,08,18,08,35,15.50
2016,08,18,08,36,15.60
2016,08,18,08,37,15.60
2016,08,18,08,38,15.70
2016,08,18,08,39,15.70
2016,08,18,08,40,15.80
2016,08,18,08,41,15.80
2016,08,18,08,42,15.90
2016,08,18,08,43,16.00
2016,08,18,08,44,16.00
2016,08,18,08,45,16.10
2016,08,18,08,46,16.20
2016,08,18,08,47,16.30
2016,08,18,08,48,16.40
2016,08,18,08,49,16.50
2016,08,18,08,50,16.60
2016,08,18,08,51,16.70
2016,08,18,08,52,16.80
2016,08,18,08,53,16.90
2016,08,18,08,54,17.00
2016,08,18,08,55,17.10
2016,08,18,08,56,17.20
2016,08,18,08,57,17.30
2016,08,18,08,58,17.40
2016,08,18,08,59,17.50
2016,08,18,09,00,17.60
2016,08,18,09,01,17.70
2016,08,18,09,02,17.80
2016,08,18,09,03,17.90
2016,08,18,09,04,18.00
2016,08,18,09,05,18.10
2016,08,18,09,06,18.20
2016,08,18,09,07,18.30
2016,08,18,09,08,18.40
2016,08,18,09,09,18.50
2016,08,18,09,10,18.60
2016,08,18,09,11,18.70
2016,08,18,09,12,18.80
2016,08,18,09,13,18.90
2016,08,18,09,14,19.00
2016,08,18,09,15,19.10
2016,08,18,09,16,19.20
2016,08,18,09,17,19.30
2016,08,18,09,18,19.40
2016,08,18,09,19,19.50
2016,08,18,09,20,19.50
2016,08,18,09,21,19.60
2016,08,18,09,22,19.60
2016,08,18,09,23,19.70
2016,08,18,09,24,19.70
2016,08,18,09,25,19.80
2016,08,18,09,26,19.80
2016,08,18,09,27,19.90
2016,08,18,09,28,19.90
2016,08,18,09,29,19.90
2016,08,18,09,30,20.00
2016,08,18,09,31,20.10
2016,08,18,09,32,20.20
2016,08,18,09,33,20.30
2016,08,18,09,34,20.40
2016,08,18,09,35,20.50
2016,08,18,09,36,20.50
2016,08,18,09,37,20.60
2016,08,18,09,38,20.60
2016,08,18,09,39,20.70
2016,08,18,09,40,20.80
2016,08,18,09,41,20.90
2016,08,18,09,42,21.00
2016,08,18,09,43,21.00
2016,08,18,09,44,21.10
2016,08,18,09,45,21.10
2016,08,18,09,46,21.20
2016,08,18,09,47,21.30
2016,08,18,09,48,21.40
2016,08,18,09,49,21.50
2016,08,18,09,50,21.70
2016,08,18,09,51,21.80
2016,08,18,09,52,21.90
2016,08,18,09,53,22.00
2016,08,18,09,54,22.10
2016,08,18,09,55,22.20
2016,08,18,09,56,22.30
2016,08,18,09,57,22.40
2016,08,18,09,58,22.50
2016,08,18,09,59,22.60
2016,08,18,10,00,22.70
2016,08,18,10,01,22.80
2016,08,18,10,02,22.90
2016,08,18,10,03,22.90
2016,08,18,10,04,22.90
2016,08,18,10,05,22.90
2016,08,18,10,06,22.90
2016,08,18,10,07,22.90
2016,08,18,10,08,22.80
2016,08,18,10,09,22.90
2016,08,18,10,10,22.90
2016,08,18,10,11,22.90
2016,08,18,10,12,23.00
2016,08,18,10,13,23.00
2016,08,18,10,14,23.00
2016,08,18,10,15,23.00
2016,08,18,10,16,23.00
2016,08,18,10,17,22.90
2016,08,18,10,18,22.90
2016,08,18,10,19,22.80
2016,08,18,10,20,22.70
2016,08,18,10,21,22.60
2016,08,18,10,22,22.40
2016,08,18,10,23,22.30
2016,08,18,10,24,22.20
2016,08,18,10,25,22.00
2016,08,18,10,26,21.80
2016,08,18,10,27,21.70
2016,08,18,10,28,21.60
2016,08,18,10,29,21.50
2016,08,18,10,30,21.30
2016,08,18,10,31,21.20
2016,08,18,10,32,21.10
2016,08,18,10,33,21.00
2016,08,18,10,34,21.00
2016,08,18,10,35,20.90
2016,08,18,10,36,20.90
2016,08,18,10,37,20.90
2016,08,18,10,38,20.80
2016,08,18,10,39,20.80
2016,08,18,10,40,20.80
2016,08,18,10,41,20.70
2016,08,18,10,42,20.70
2016,08,18,10,43,20.70
2016,08,18,10,44,20.70
2016,08,18,10,45,20.70
2016,08,18,10,46,20.70
2016,08,18,10,47,20.70
2016,08,18,10,48,20.70
2016,08,18,10,49,20.70
2016,08,18,10,50,20.70
2016,08,18,10,51,20.70
2016,08,18,10,52,20.70
2016,08,18,10,53,20.70
2016,08,18,10,54,20.70
2016,08,18,10,55,20.60
2016,08,18,10,56,20.60
2016,08,18,10,57,20.60
2016,08,18,10,58,20.60
2016,08,18,10,59,20.70
2016,08,18,11,00,20.70
2016,08,18,11,01,20.80
2016,08,18,11,02,20.90
2016,08,18,11,03,21.00
2016,08,18,11,04,21.10
2016,08,18,11,05,21.20
2016,08,18,11,06,21.20
2016,08,18,11,07,21.20
2016,08,18,11,08,21.20
2016,08,18,11,09,21.30
2016,08,18,11,10,21.30
2016,08,18,11,11,21.30
2016,08,18,11,12,21.40
2016,08,18,11,13,21.40
2016,08,18,11,14,21.50
2016,08,18,11,15,21.50
2016,08,18,11,16,21.50
2016,08,18,11,17,21.50
2016,08,18,11,18,21.50
2016,08,18,11,19,21.60
2016,08,18,11,20,21.60
2016,08,18,11,21,21.60
2016,08,18,11,22,21.50
2016,08,18,11,23,21.40
2016,08,18,11,24,21.30
2016,08,18,11,25,21.20
2016,08,18,11,26,21.20
2016,08,18,11,27,21.20
2016,08,18,11,28,21.20
2016,08,18,11,29,21.10
2016,08,18,11,30,21.10
2016,08,18,11,31,21.00
2016,08,18,11,32,20.90
2016,08,18,11,33,20.80
2016,08,18,11,34,20.80
2016,08,18,11,35,20.80
2016,08,18,11,36,20.80
2016,08,18,11,37,20.90
2016,08,18,11,38,21.10
2016,08,18,11,39,21.30
2016,08,18,11,40,21.50
2016,08,18,11,41,21.80
2016,08,18,11,42,22.10
2016,08,18,11,43,22.40
2016,08,18,11,44,22.70
2016,08,18,11,45,22.90
2016,08,18,11,46,23.20
2016,08,18,11,47,23.30
2016,08,18,11,48,23.50
2016,08,18,11,49,23.70
2016,08,18,11,50,23.80
2016,08,18,11,51,24.00
2016,08,18,11,52,24.00
2016,08,18,11,53,24.10
2016,08,18,11,54,24.20
2016,08,18,11,55,24.20
2016,08,18,11,56,24.20
2016,08,18,11,57,24.20
2016,08,18,11,58,24.10
2016,08,18,11,59,24.10
2016,08,18,12,00,24.00
2016,08,18,12,01,24.00
2016,08,18,12,02,24.10
2016,08,18,12,03,24.20
2016,08,18,12,04,24.30
2016,08,18,12,05,24.40
2016,08,18,12,06,24.60
2016,08,18,12,07,24.80
2016,08,18,12,08,25.00
2016,08,18,12,09,25.10
2016,08,18,12,10,25.30
2016,08,18,12,11,25.50
2016,08,18,12,12,25.70
2016,08,18,12,13,25.80
2016,08,18,12,14,25.90
2016,08,18,12,15,26.10
2016,08,18,12,16,26.20
2016,08,18,12,17,26.30
2016,08,18,12,18,26.30
2016,08,18,12,19,26.40
2016,08,18,12,20,26.40
2016,08,18,12,21,26.50
2016,08,18,12,22,26.60
2016,08,18,12,23,26.70
2016,08,18,12,24,26.70
2016,08,18,12,25,26.70
2016,08,18,12,26,26.90
2016,08,18,12,27,27.00
2016,08,18,12,28,27.00
2016,08,18,12,29,27.10
2016,08,18,12,30,27.20
2016,08,18,12,31,27.30
2016,08,18,12,32,27.50
2016,08,18,12,33,27.70
2016,08,18,12,34,27.80
2016,08,18,12,35,28.00
2016,08,18,12,36,28.10
2016,08,18,12,37,28.10
2016,08,18,12,38,28.10
2016,08,18,12,39,28.10
2016,08,18,12,40,28.00
2016,08,18,12,41,27.60
2016,08,18,12,42,27.20
2016,08,18,12,43,26.90
2016,08,18,12,44,26.70
2016,08,18,12,45,26.50
2016,08,18,12,46,26.40
2016,08,18,12,47,26.30
2016,08,18,12,48,26.30
2016,08,18,12,49,26.20
2016,08,18,12,50,26.20
2016,08,18,12,51,26.00
2016,08,18,12,52,25.90
2016,08,18,12,53,25.80
2016,08,18,12,54,25.80
2016,08,18,12,55,25.80
2016,08,18,12,56,25.80
2016,08,18,12,57,25.70
2016,08,18,12,58,25.70
2016,08,18,12,59,25.70
2016,08,18,13,00,25.80
2016,08,18,13,01,26.00
2016,08,18,13,02,26.20
2016,08,18,13,03,26.30
2016,08,18,13,04,26.30
2016,08,18,13,05,26.40
2016,08,18,13,06,26.40
2016,08,18,13,07,26.40
2016,08,18,13,08,26.40
2016,08,18,13,09,26.50
2016,08,18,13,10,26.50
2016,08,18,13,11,26.50
2016,08,18,13,12,26.50
2016,08,18,13,13,26.40
2016,08,18,13,14,26.30
2016,08,18,13,15,26.20
2016,08,18,13,16,26.10
2016,08,18,13,17,26.10
2016,08,18,13,18,26.10
2016,08,18,13,19,26.10
2016,08,18,13,20,26.10
2016,08,18,13,21,26.10
2016,08,18,13,22,26.20
2016,08,18,13,23,26.30
2016,08,18,13,24,26.40
2016,08,18,13,25,26.70
2016,08,18,13,26,26.90
2016,08,18,13,27,27.20
2016,08,18,13,28,27.30
2016,08,18,13,29,27.40
2016,08,18,13,30,27.40
2016,08,18,13,31,27.50
2016,08,18,13,32,27.50
2016,08,18,13,33,27.60
2016,08,18,13,34,27.60
2016,08,18,13,35,27.60
2016,08,18,13,36,27.60
2016,08,18,13,37,27.60
2016,08,18,13,38,27.50
2016,08,18,13,39,27.40
2016,08,18,13,40,27.40
2016,08,18,13,41,27.30
2016,08,18,13,42,27.10
2016,08,18,13,43,26.90
2016,08,18,13,44,26.80
2016,08,18,13,45,26.70
2016,08,18,13,46,26.70
2016,08,18,13,47,26.80
2016,08,18,13,48,26.90
2016,08,18,13,49,26.90
2016,08,18,13,50,27.00
2016,08,18,13,51,27.00
2016,08,18,13,52,27.10
2016,08,18,13,53,27.20
2016,08,18,13,54,27.20
2016,08,18,13,55,27.20
2016,08,18,13,56,27.20
2016,08,18,13,57,27.20
2016,08,18,13,58,27.10
2016,08,18,13,59,27.00
2016,08,18,14,00,27.00
2016,08,18,14,01,27.00
2016,08,18,14,02,27.10
2016,08,18,14,03,27.00
2016,08,18,14,04,27.00
2016,08,18,14,05,26.90
2016,08,18,14,06,26.90
2016,08,18,14,07,26.90
2016,08,18,14,08,26.90
2016,08,18,14,09,26.90
2016,08,18,14,10,26.80
2016,08,18,14,11,26.70
2016,08,18,14,12,26.70
2016,08,18,14,13,26.70
2016,08,18,14,14,26.70
2016,08,18,14,15,26.60
2016,08,18,14,16,26.60
2016,08,18,14,17,26.60
2016,08,18,14,18,26.60
2016,08,18,14,19,26.50
2016,08,18,14,20,26.40
2016,08,18,14,21,26.30
2016,08,18,14,22,26.30
2016,08,18,14,23,26.20
2016,08,18,14,24,26.10
2016,08,18,14,25,26.10
2016,08,18,14,26,26.00
2016,08,18,14,27,25.90
2016,08,18,14,28,25.90
2016,08,18,14,29,25.90
2016,08,18,14,30,25.80
2016,08,18,14,31,25.80
2016,08,18,14,32,25.80
2016,08,18,14,33,25.80
2016,08,18,14,34,25.80
2016,08,18,14,35,25.80
2016,08,18,14,36,25.80
2016,08,18,14,37,25.80
2016,08,18,14,38,25.80
2016,08,18,14,39,25.90
2016,08,18,14,40,26.00
2016,08,18,14,41,26.00
2016,08,18,14,42,26.10
2016,08,18,14,43,26.20
2016,08,18,14,44,26.30
2016,08,18,14,45,26.30
2016,08,18,14,46,26.40
2016,08,18,14,47,26.50
2016,08,18,14,48,26.60
2016,08,18,14,49,26.70
2016,08,18,14,50,26.80
2016,08,18,14,51,26.80
2016,08,18,14,52,26.90
2016,08,18,14,53,26.90
2016,08,18,14,54,26.80
2016,08,18,14,55,26.80
2016,08,18,14,56,26.80
2016,08,18,14,57,26.70
2016,08,18,14,58,26.70
2016,08,18,14,59,26.70
2016,08,18,15,00,26.70
2016,08,18,15,01,26.70
2016,08,18,15,02,26.80
2016,08,18,15,03,26.90
2016,08,18,15,04,27.00
2016,08,18,15,05,27.10
2016,08,18,15,06,27.20
2016,08,18,15,07,27.30
2016,08,18,15,08,27.40
2016,08,18,15,09,27.40
2016,08,18,15,10,27.50
2016,08,18,15,11,27.50
2016,08,18,15,12,27.60
2016,08,18,15,13,27.60
2016,08,18,15,14,27.70
2016,08,18,15,15,27.70
2016,08,18,15,16,27.80
2016,08,18,15,17,27.80
2016,08,18,15,18,27.80
2016,08,18,15,19,27.80
2016,08,18,15,20,27.80
2016,08,18,15,21,27.80
2016,08,18,15,22,27.80
2016,08,18,15,23,27.90
2016,08,18,15,24,27.90
2016,08,18,15,25,27.90
2016,08,18,15,26,28.00
2016,08,18,15,27,28.00
2016,08,18,15,28,28.10
2016,08,18,15,29,28.10
2016,08,18,15,30,28.10
2016,08,18,15,31,28.10
2016,08,18,15,32,28.20
2016,08,18,15,33,28.20
2016,08,18,15,34,28.20
2016,08,18,15,35,28.20
2016,08,18,15,36,28.20
2016,08,18,15,37,28.10
2016,08,18,15,38,28.00
2016,08,18,15,39,28.00
2016,08,18,15,40,27.90
2016,08,18,15,41,27.90
2016,08,18,15,42,27.90
2016,08,18,15,43,27.90
2016,08,18,15,44,27.90
2016,08,18,15,45,27.90
2016,08,18,15,46,27.80
2016,08,18,15,47,27.80
2016,08,18,15,48,27.70
2016,08,18,15,49,27.70
2016,08,18,15,50,27.70
2016,08,18,15,51,27.60
2016,08,18,15,52,27.70
2016,08,18,15,53,27.70
2016,08,18,15,54,27.70
2016,08,18,15,55,27.70
2016,08,18,15,56,27.80
2016,08,18,15,57,27.80
2016,08,18,15,58,27.80
2016,08,18,15,59,27.80
2016,08,18,16,00,27.90
2016,08,18,16,01,27.90
2016,08,18,16,02,27.90
2016,08,18,16,03,28.00
2016,08,18,16,04,28.10
2016,08,18,16,05,28.10
2016,08,18,16,06,28.20
2016,08,18,16,07,28.20
2016,08,18,16,08,28.20
2016,08,18,16,09,28.20
2016,08,18,16,10,28.30
2016,08,18,16,11,28.30
2016,08,18,16,12,28.30
2016,08,18,16,13,28.30
2016,08,18,16,14,28.40
2016,08,18,16,15,28.40
2016,08,18,16,16,28.50
2016,08,18,16,17,28.60
2016,08,18,16,18,28.60
2016,08,18,16,19,28.70
2016,08,18,16,20,28.70
2016,08,18,16,21,28.70
2016,08,18,16,22,28.70
2016,08,18,16,23,28.70
2016,08,18,16,24,28.70
2016,08,18,16,25,28.70
2016,08,18,16,26,28.70
2016,08,18,16,27,28.60
2016,08,18,16,28,28.60
2016,08,18,16,29,28.60
2016,08,18,16,30,28.60
2016,08,18,16,31,28.60
2016,08,18,16,32,28.60
2016,08,18,16,33,28.60
2016,08,18,16,34,28.60
2016,08,18,16,35,28.60
2016,08,18,16,36,28.60
2016,08,18,16,37,28.70
2016,08,18,16,38,28.70
2016,08,18,16,39,28.80
2016,08,18,16,40,28.80
2016,08,18,16,41,28.90
2016,08,18,16,42,28.90
2016,08,18,16,43,28.90
2016,08,18,16,44,28.90
2016,08,18,16,45,29.00
2016,08,18,16,46,29.00
2016,08,18,16,47,29.00
2016,08,18,16,48,28.90
2016,08,18,16,49,28.90
2016,08,18,16,50,28.90
2016,08,18,16,51,28.80
2016,08,18,16,52,28.80
2016,08,18,16,53,28.70
2016,08,18,16,54,28.60
2016,08,18,16,55,28.50
2016,08,18,16,56,28.30
2016,08,18,16,57,28.20
2016,08,18,16,58,28.20
2016,08,18,16,59,28.10
2016,08,18,17,00,28.10
2016,08,18,17,01,28.00
2016,08,18,17,02,28.00
2016,08,18,17,03,27.90
2016,08,18,17,04,27.90
2016,08,18,17,05,27.90
2016,08,18,17,06,27.90
2016,08,18,17,07,27.80
2016,08,18,17,08,27.70
2016,08,18,17,09,27.50
2016,08,18,17,10,27.40
2016,08,18,17,11,27.20
2016,08,18,17,12,27.10
2016,08,18,17,13,26.90
2016,08,18,17,14,26.70
2016,08,18,17,15,26.60
2016,08,18,17,16,26.40
2016,08,18,17,17,26.30
2016,08,18,17,18,26.20
2016,08,18,17,19,26.10
2016,08,18,17,20,26.10
2016,08,18,17,21,26.00
2016,08,18,17,22,26.00
2016,08,18,17,23,25.90